Weather History for KEFT - April, 2014

Change the Weather History Date:

Tuesday, April 8, 2014

  Actual Average Record
Temperature  
Mean Temperature 48 °F -  
Max Temperature 59 °F 0 °F 71 °F (2001)
Min Temperature 38 °F - 24 °F (2006)
Degree Days  
Heating Degree Days 17    
Moisture  
Dew Point 35 °F    
Average Humidity 66    
Maximum Humidity 100    
Minimum Humidity 31    
Precipitation  
Precipitation 0.02 in - - ()
Sea Level Pressure  
Sea Level Pressure 29.79 in    
Wind  
Wind Speed 10 mph (NNW)    
Max Wind Speed 16 mph    
Max Gust Speed 23 mph    
Visibility 10 miles    
Events      
Averages and records for this station are not official NWS values.
T = Trace of Precipitation, MM = Missing Value Source: NWS Daily Summary

Daily Weather History Graph

Daily Weather History Graph

Search for Another Location

Airport or City:

Trip Planner

Search our weather history database for the weather conditions in past years. The results will help you decide how hot, cold, wet, or windy it might be!

Date:

Astronomy

Apr. 08, 2014 Rise Set
Actual Time 6:28 AM CDT 7:32 PM CDT
Civil Twilight 5:59 AM CDT 8:01 PM CDT
Nautical Twilight 5:25 AM CDT 8:35 PM CDT
Astronomical Twilight 4:49 AM CDT 9:12 PM CDT
Moon 1:18 PM CDT (4/8) 2:49 AM CDT (4/8)
Length of Visible Light 14h 01m
Length of Day
13h 03m
Waxing Gibbous, 63% of the Moon is Illuminated
Apr 8
Waxing Gibbous
Apr 15
Full
Apr 22
Last Quarter
Apr 29
New
May 6
First Quarter

Hourly Weather History & Observations

Time (CDT) Temp. Windchill Dew Point Humidity Pressure Visibility Wind Dir Wind Speed Gust Speed Precip Events Conditions
12:15 AM 45.1 °F 40.8 °F 45.1 °F 100% 29.67 in 10.0 mi NW 8.1 mph - N/A   Overcast
12:35 AM 45.7 °F 41.0 °F 45.7 °F 100% 29.67 in 10.0 mi NW 9.2 mph - N/A   Overcast
12:55 AM 45.9 °F 40.8 °F 45.9 °F 100% 29.67 in 10.0 mi NW 10.4 mph - N/A   Overcast
1:15 AM 45.5 °F 40.3 °F 45.5 °F 100% 29.68 in 10.0 mi NW 10.4 mph - N/A   Overcast
1:35 AM 45.1 °F 40.3 °F 45.1 °F 100% 29.67 in 10.0 mi NW 9.2 mph 16.1 mph N/A   Overcast
1:55 AM 44.4 °F 38.6 °F 44.4 °F 100% 29.67 in 10.0 mi NW 11.5 mph - N/A   Overcast
2:15 AM 43.5 °F 38.3 °F 43.5 °F 100% 29.67 in 10.0 mi NW 9.2 mph - N/A   Scattered Clouds
2:35 AM 42.1 °F 36.6 °F 42.1 °F 100% 29.67 in 10.0 mi WNW 9.2 mph - N/A   Clear
2:55 AM 41.9 °F 36.3 °F 41.9 °F 100% 29.67 in 10.0 mi WNW 9.2 mph - N/A   Scattered Clouds
3:15 AM 41.5 °F 35.9 °F 41.5 °F 100% 29.67 in 10.0 mi NW 9.2 mph - N/A   Scattered Clouds
3:35 AM 41.2 °F 36.6 °F 41.2 °F 100% 29.67 in 10.0 mi NW 6.9 mph - N/A   Scattered Clouds
3:55 AM 40.6 °F 34.8 °F 40.6 °F 100% 29.68 in 10.0 mi NW 9.2 mph - N/A   Clear
4:15 AM 40.5 °F 34.6 °F 40.5 °F 100% 29.68 in 10.0 mi NW 9.2 mph - N/A   Clear
4:35 AM 40.5 °F 34.6 °F 40.5 °F 100% 29.68 in 10.0 mi NW 9.2 mph - N/A   Clear
4:55 AM 40.1 °F 34.7 °F 40.1 °F 100% 29.68 in 10.0 mi NW 8.1 mph - N/A   Clear
5:15 AM 39.4 °F 32.3 °F 39.4 °F 100% 29.69 in 10.0 mi NW 11.5 mph - N/A   Clear
5:35 AM 39.2 °F 32.0 °F 39.2 °F 100% 29.69 in 10.0 mi NW 11.5 mph - N/A   Clear
5:55 AM 38.8 °F 31.2 °F 38.8 °F 100% 29.70 in 10.0 mi NW 12.7 mph - N/A   Clear
6:15 AM 38.3 °F 31.4 °F 38.3 °F 100% 29.71 in 10.0 mi NW 10.4 mph - N/A   Clear
6:35 AM 38.3 °F 31.4 °F 38.3 °F 100% 29.72 in 10.0 mi NW 10.4 mph - N/A   Clear
6:55 AM 38.3 °F 30.9 °F 38.3 °F 100% 29.73 in 10.0 mi NW 11.5 mph - N/A   Clear
7:15 AM 38.7 °F 32.9 °F 38.7 °F 100% 29.73 in 10.0 mi NW 8.1 mph - N/A   Clear
7:35 AM 39.6 °F 36.3 °F 39.6 °F 100% 29.74 in 10.0 mi NNW 4.6 mph - N/A   Clear
7:55 AM 41.2 °F 37.3 °F 41.2 °F 100% 29.75 in 10.0 mi NNW 5.8 mph - N/A   Clear
8:15 AM 43.0 °F 37.2 °F 42.8 °F 99% 29.75 in 10.0 mi NNW 10.4 mph 16.1 mph N/A   Clear
8:35 AM 44.1 °F 39.5 °F 42.3 °F 93% 29.75 in 10.0 mi NNW 8.1 mph - N/A   Clear
8:55 AM 45.7 °F 40.6 °F 42.4 °F 88% 29.76 in 10.0 mi North 10.4 mph - N/A   Clear
9:15 AM 47.7 °F - 41.2 °F 78% 29.76 in 10.0 mi North 11.5 mph 18.4 mph N/A   Clear
9:35 AM 48.7 °F - 37.9 °F 66% 29.77 in 10.0 mi NNW 12.7 mph 16.1 mph N/A   Clear
9:55 AM 50.0 °F - 38.8 °F 66% 29.78 in 10.0 mi North 6.9 mph - N/A   Clear
10:15 AM 51.3 °F - 38.3 °F 61% 29.78 in 10.0 mi North 11.5 mph - N/A   Scattered Clouds
10:35 AM 52.7 °F - 38.3 °F 58% 29.79 in 10.0 mi North 5.8 mph 17.3 mph N/A   Scattered Clouds
10:55 AM 53.8 °F - 38.1 °F 55% 29.79 in 10.0 mi NNW 10.4 mph 16.1 mph N/A   Scattered Clouds
11:15 AM 54.9 °F - 36.7 °F 50% 29.79 in 10.0 mi NNW 10.4 mph 18.4 mph N/A   Scattered Clouds
11:35 AM 55.2 °F - 35.6 °F 48% 29.80 in 10.0 mi North 12.7 mph 19.6 mph N/A   Scattered Clouds
11:55 AM 53.2 °F - 34.7 °F 49% 29.80 in 10.0 mi NNW 11.5 mph 18.4 mph N/A   Scattered Clouds
12:15 PM 55.2 °F - 36.0 °F 48% 29.80 in 10.0 mi NW 4.6 mph - N/A   Scattered Clouds
12:35 PM 55.2 °F - 33.3 °F 43% 29.79 in 10.0 mi NNW 5.8 mph 18.4 mph N/A   Mostly Cloudy
12:55 PM 56.7 °F - 31.8 °F 39% 29.79 in 10.0 mi NW 10.4 mph 17.3 mph N/A   Mostly Cloudy
1:15 PM 57.0 °F - 31.3 °F 38% 29.79 in 10.0 mi NW 12.7 mph 20.7 mph N/A   Mostly Cloudy
1:35 PM 55.9 °F - 29.8 °F 37% 29.79 in 10.0 mi NW 12.7 mph 17.3 mph N/A   Mostly Cloudy
1:55 PM 57.6 °F - 30.4 °F 36% 29.79 in 10.0 mi North 10.4 mph - N/A   Scattered Clouds
2:15 PM 55.9 °F - 29.1 °F 36% 29.80 in 10.0 mi NNW 12.7 mph 23.0 mph N/A   Mostly Cloudy
2:35 PM 57.4 °F - 28.2 °F 33% 29.80 in 10.0 mi NNW 10.4 mph 21.9 mph N/A   Mostly Cloudy
2:55 PM 57.0 °F - 27.3 °F 32% 29.80 in 10.0 mi NNW 11.5 mph 18.4 mph N/A   Mostly Cloudy
3:15 PM 57.4 °F - 28.2 °F 33% 29.80 in 10.0 mi NW 10.4 mph 17.3 mph N/A   Overcast
3:35 PM 57.4 °F - 27.5 °F 32% 29.81 in 10.0 mi NW 12.7 mph 21.9 mph N/A   Mostly Cloudy
3:55 PM 57.9 °F - 27.0 °F 31% 29.81 in 10.0 mi NW 11.5 mph 17.3 mph N/A   Overcast
4:15 PM 56.5 °F - 26.2 °F 31% 29.81 in 10.0 mi North 15.0 mph 23.0 mph N/A   Overcast
4:35 PM 57.4 °F - 27.7 °F 32% 29.82 in 10.0 mi North 16.1 mph 19.6 mph N/A   Overcast
4:55 PM 57.7 °F - 27.1 °F 31% 29.82 in 10.0 mi North 13.8 mph 23.0 mph N/A   Mostly Cloudy
5:15 PM 55.8 °F - 28.4 °F 35% 29.83 in 10.0 mi North 9.2 mph - N/A   Mostly Cloudy
5:35 PM 58.1 °F - 27.5 °F 31% 29.83 in 10.0 mi North 11.5 mph 21.9 mph N/A   Mostly Cloudy
5:55 PM 56.5 °F - 28.0 °F 34% 29.84 in 10.0 mi North 13.8 mph 19.6 mph N/A   Mostly Cloudy
6:15 PM 55.9 °F - 28.4 °F 35% 29.85 in 10.0 mi North 11.5 mph 21.9 mph N/A   Mostly Cloudy
6:35 PM 55.4 °F - 29.1 °F 37% 29.85 in 10.0 mi NNW 11.5 mph - N/A   Scattered Clouds
6:55 PM 53.8 °F - 28.2 °F 37% 29.86 in 10.0 mi NNW 9.2 mph - N/A   Scattered Clouds
7:15 PM 52.0 °F - 29.5 °F 42% 29.87 in 10.0 mi North 11.5 mph - N/A   Scattered Clouds
7:35 PM 49.8 °F - 32.7 °F 52% 29.88 in 10.0 mi North 6.9 mph - N/A   Scattered Clouds
7:55 PM 49.1 °F - 32.7 °F 53% 29.89 in 10.0 mi NNW 5.8 mph - N/A   Scattered Clouds
8:15 PM 49.3 °F - 32.0 °F 51% 29.90 in 10.0 mi NNW 4.6 mph - N/A   Scattered Clouds
8:35 PM 48.4 °F - 31.8 °F 53% 29.90 in 10.0 mi NNW 4.6 mph - N/A   Mostly Cloudy
8:55 PM 48.4 °F - 32.0 °F 53% 29.91 in 10.0 mi NW 6.9 mph - N/A   Scattered Clouds
9:15 PM 48.4 °F - 30.0 °F 49% 29.92 in 10.0 mi NNW 8.1 mph - N/A   Scattered Clouds
9:35 PM 48.0 °F - 29.3 °F 48% 29.92 in 10.0 mi NNW 5.8 mph - N/A   Mostly Cloudy
9:55 PM 46.2 °F 41.7 °F 28.8 °F 51% 29.93 in 10.0 mi NW 9.2 mph - N/A   Mostly Cloudy
10:15 PM 45.5 °F 40.3 °F 28.4 °F 51% 29.93 in 10.0 mi NW 10.4 mph - N/A   Clear
10:35 PM 44.8 °F 41.6 °F 28.4 °F 53% 29.93 in 10.0 mi NNW 5.8 mph - N/A   Clear
10:55 PM 43.9 °F 38.8 °F 28.2 °F 54% 29.93 in 10.0 mi WNW 9.2 mph - N/A   Clear
11:20 PM 44.6 °F 39.7 °F 28.0 °F 52% 29.94 in 10.0 mi NW 9.2 mph - N/A   Clear
11:35 PM 44.1 °F 39.0 °F 28.0 °F 53% 29.94 in 10.0 mi NW 9.2 mph - N/A   Clear
11:55 PM 43.2 °F 38.4 °F 28.0 °F 55% 29.94 in 10.0 mi NW 8.1 mph - N/A   Clear